#timestamp,LO_Frequency,Hit,StdDev 
1687730415.5,286047012.7,N
1687730435.4,286047016.2,N
1687730455.2,286047019.9,N
1687730475.1,286047019.1,N
1687730476.0,286047019.1,N
1687730495.8,286047019.1,N
1687730515.6,286047019.2,N
1687730535.5,286047023.5,N
1687730555.3,286047021.6,N
1687730575.1,286047021.7,N
1687730595.9,286047021.1,N
1687730615.7,286047019.3,N
1687730635.6,286047017.4,N
1687730655.4,286047018.1,N
1687730675.2,286047019.9,N
1687730695.1,286047021.3,N
1687730696.0,286047021.3,N
1687730715.8,286047019.2,N
1687730735.7,286047020.2,N
1687730755.5,286047018.0,N
1687730775.3,286047018.7,N
1687730795.2,286047020.4,Y
1687730815.0,286047003.4,P
1687730815.9,286047003.4,N
1687730835.7,286047011.9,N
1687730855.6,286047001.3,N
1687730875.4,286047003.8,N
1687730895.3,286047003.3,N
1687730915.1,286047005.2,N
1687730916.0,286047005.2,N
1687730935.8,286047005.1,N
1687730955.7,286047006.6,N
1687730975.5,286047008.8,N
1687730995.3,286047009.7,N
1687731015.2,286047010.0,N
1687731035.0,286047009.5,N
1687731035.9,286047009.5,N
1687731055.8,286047012.4,Y
1687731075.6,286047003.4,P
1687731095.4,286047003.2,N
1687731115.3,286047003.5,N
1687731135.1,286047005.6,Y
1687731155.9,286047001.0,P
1687731175.7,286047002.2,N
1687731195.5,286047001.8,N
1687731215.4,286047002.0,N
1687731235.2,286047002.0,N
1687731255.0,286047002.9,N
1687731255.9,286047002.9,N
1687731275.8,286047004.4,Y
1687731295.6,286046998.7,P
1687731315.5,286047001.2,N
1687731335.3,286047000.3,N
1687731355.1,286047001.3,N
1687731375.9,286047003.6,N
1687731395.7,286047001.5,N
1687731415.5,286047003.7,N
1687731435.4,286047005.4,Y
1687731455.2,286047004.6,P
1687731475.1,286047005.8,P
1687731476.0,286047005.8,P
1687731495.8,286047004.6,N
1687731515.6,286047007.3,Y
1687731535.5,286047001.4,P
1687731555.3,286047002.7,N
1687731575.1,286047001.3,N
1687731595.9,286047003.1,N
1687731615.7,286047005.9,Y
1687731635.6,286047002.0,P
1687731655.4,286047001.8,P
1687731675.2,286047001.4,P
1687731695.1,286047003.6,Y
1687731696.0,286047003.6,P
1687731715.8,286047002.6,P
1687731735.7,286047001.5,N
1687731755.5,286047004.3,Y
1687731775.3,286047000.0,P
1687731795.2,286047000.4,N
1687731815.0,286047000.4,N
1687731815.9,286047000.4,N
1687731835.8,286047002.5,N
1687731855.6,286047005.5,Y
1687731875.5,286047004.8,P
1687731895.3,286047004.6,N
1687731915.1,286047006.3,P
1687731935.9,286047008.9,Y
1687731955.7,286047005.2,P
1687731975.6,286047005.8,P
1687731995.4,286047005.1,P
1687732015.2,286047007.2,Y
1687732035.1,286047002.4,P
1687732036.0,286047002.4,N
1687732055.8,286047002.7,N
1687732075.6,286047003.2,N
1687732095.5,286047005.9,Y
1687732115.3,286047001.7,P
1687732135.2,286047002.5,P
1687732155.0,286047001.0,N
1687732155.9,286047001.0,N
1687732175.7,286046998.6,N
1687732195.6,286047000.6,N
1687732215.4,286046999.8,N
1687732235.3,286047002.0,N
1687732255.1,286047001.7,N
1687732256.0,286047001.7,N
1687732275.8,286047001.4,N
1687732295.7,286047004.0,Y
1687732315.5,286047005.9,P
1687732335.4,286047003.5,N
1687732355.2,286047003.1,N
1687732375.0,286047003.4,N
1687732375.9,286047003.4,N
1687732395.8,286047005.8,Y
1687732415.6,286047002.6,P
1687732435.4,286046999.7,N
1687732455.3,286047001.7,N
1687732475.1,286047004.1,N
1687732495.9,286047006.0,Y
1687732515.7,286047005.9,P
1687732535.5,286047003.5,N
1687732555.4,286047004.9,P
1687732575.2,286047006.6,Y
1687732625.1,286047010.7,E
1687732635.0,286047007.5,N
1687732635.9,286047007.5,P
1687732655.7,286047002.3,P
1687732675.6,286047000.5,N
1687732695.4,286047002.4,N
1687732715.3,286047001.3,N
1687732735.1,286047001.6,N
1687732736.0,286047001.6,N
1687732755.8,286047003.7,N
1687732775.7,286047007.4,N
1687732795.5,286047007.2,N
1687732815.3,286047003.0,N
1687732835.2,286047007.3,N
1687732855.0,286047008.0,N
1687732855.9,286047008.0,N
1687732875.8,286047008.0,N
1687732895.6,286047011.9,Y
1687732915.4,286047005.7,P
1687732935.3,286047006.8,P
1687732955.1,286047007.9,P
1687732975.9,286047007.7,Y
1687732995.7,286047001.3,P
1687733015.5,286047004.3,N
1687733035.4,286047002.9,N
1687733055.2,286047007.5,Y
1687733075.0,286047007.5,P
1687733076.0,286047007.5,P
1687733095.8,286047008.7,P
1687733115.6,286047012.3,Y
1687733135.5,286047005.9,P
1687733155.3,286047002.9,P
1687733175.1,286047004.2,N
1687733195.9,286047001.7,N
1687733215.7,286047003.7,N
1687733235.6,286047004.4,N
1687733255.4,286047004.3,N
1687733275.2,286047001.5,N
1687733295.1,286047002.2,N
1687733296.0,286047002.2,N
1687733315.8,286047004.4,N
1687733335.6,286047001.7,N
1687733355.5,286047004.4,N
1687733375.3,286047004.3,N
1687733395.2,286047005.5,Y
1687733415.9,286047002.8,P
1687733435.7,286047001.7,P
1687733455.6,286047001.5,N
1687733475.4,286047005.2,Y
1687733495.2,286047002.2,P
1687733515.1,286047004.0,P
1687733516.0,286047004.0,P
1687733535.8,286047005.4,Y
1687733555.7,286047001.3,P
1687733575.5,286047007.6,P
1687733595.3,286047008.4,P
1687733615.2,286047007.7,N
1687733635.0,286047010.6,Y
1687733635.9,286047010.6,P
1687733655.8,286047007.2,N
1687733675.6,286047007.2,P
1687733695.4,286047006.9,Y
1687733715.3,286046999.4,P
1687733735.1,286047000.4,N
1687733755.9,286047002.8,N
1687733775.7,286047004.0,N
1687733795.5,286047006.0,N
1687733815.4,286047003.8,N
1687733835.2,286047003.0,N
1687733855.0,286047004.8,N
1687733855.9,286047004.8,N
1687733875.8,286047006.8,N
1687733895.6,286047008.1,Y
1687733915.5,286047006.3,P
1687733935.3,286047008.9,P
1687733955.1,286047006.1,P
1687733975.9,286047008.5,Y
1687733995.7,286047003.4,P
